Location: Staunton
(38.1490°N, 79.0720°W)
Time: 00:43:40
(UTC-05:00)

ISS - Pass Details

Date: 17 January 2021
Orbit: 418 x 421 km, 51.6° (Epoch: 23 January)

Event Time Altitude Azimuth Distance (km) Brightness Sun altitude
Rises 19:34:58 0° 239° (WSW) 2,357 1.1 -25.7°
Reaches altitude 10° 19:37:05 10° 244° (WSW) 1,497 -0.1 -26.1°
Enters shadow 19:38:50 27° 255° (WSW) 837 -1.6 -26.4°
